Location: Bottens
(46.6171°N, 6.6605°E)
Time: 09:42:08
(UTC+00:00)

ATLAS 5 CENTAUR R/B - Pass Details

Date: 06 November 2021
Orbit: 497 x 1159 km, 63.4° (Epoch: 25 November)

Event Time Altitude Azimuth Distance (km) Brightness Sun altitude
Rises 17:07:52 0° 311° (NW) 2,874 5.5 -10.2°
Reaches altitude 10° 17:11:51 10° 347° (NNW) 2,124 4.3 -10.8°
Maximum altitude 17:13:17 11° 5° (N) 2,104 4.1 -11.1°
Drops below altitude 10° 17:14:47 10° 22° (NNE) 2,245 4.1 -11.3°
Enters shadow 17:16:26 - 37° (NE) 2,557 4.3 -11.6°
